Location: Observatory
(52.1446°N, 0.4624°W)
Time: 05:01:49
(UTC+01:00)

ISS - Pass Details

Date: 29 March 2019
Orbit: 408 x 410 km, 51.6° (Epoch: 22 April)

Event Time Altitude Azimuth Distance (km) Brightness Sun altitude
Rises 19:02:19 0° 256° (WSW) 2,336 1.3 -5.7°
Reaches altitude 10° 19:04:25 10° 254° (WSW) 1,475 0.1 -6.0°
Maximum altitude 19:07:43 74° 170° (S) 431 -3.8 -6.5°
Drops below altitude 10° 19:11:01 10° 85° (E) 1,476 -1.6 -7.0°
Enters shadow 19:11:21 - 85° (E) 1,612 -1.4 -7.0°
